DW7738 Weather Reports


Display with metric or nautical units.
time (UTC)temp
F
wind
direction
speed
MPH
gust
MPH
rain 1hr
in
rain 24hr
in
rain mn
in
humidity
%
barometer
mb
20260510093057 52 180 2.0 3.0 0.00 0.30 0.00 99 1012.4
20260510092559 52 179 1.0 2.0 0.00 0.30 0.00 99 1012.4
20260510092058 52 179 1.0 2.0 0.00 0.30 0.00 99 1012.4
20260510091558 52 179 0.0 1.0 0.00 0.30 0.00 99 1012.5
20260510091100 52 0 0.0 2.0 0.00 0.30 0.00 99 1012.5
20260510090602 52 0 0.0 3.0 0.00 0.30 0.00 99 1012.5
20260510090059 52 179 1.0 3.0 0.00 0.30 0.00 99 1012.6
20260510085557 52 179 2.0 3.0 0.00 0.30 0.00 99 1012.6
20260510085059 52 179 2.0 3.0 0.00 0.30 0.00 99 1012.6
20260510084613 52 180 0.0 0.0 0.00 0.30 0.00 99 1012.7
20260510084058 52 0 0.0 0.0 0.00 0.30 0.00 99 1012.5
20260510083601 52 0 0.0 2.0 0.00 0.30 0.00 99 1012.7
20260510083059 52 0 0.0 2.0 0.00 0.30 0.00 99 1012.7
20260510082558 52 0 0.0 2.0 0.00 0.30 0.00 99 1012.7
20260510082058 52 0 1.0 2.0 0.00 0.30 0.00 99 1012.8
20260510081604 52 180 0.0 2.0 0.00 0.30 0.00 99 1012.8
20260510081058 51 0 0.0 2.0 0.00 0.30 0.00 99 1012.8
20260510080557 51 308 1.0 2.0 0.00 0.30 0.00 99 1012.7
20260510080105 51 308 1.0 2.0 0.00 0.30 0.00 99 1012.7
20260510075558 51 308 1.0 6.0 0.00 0.30 0.00 99 1012.9
20260510075058 51 306 1.0 6.0 0.00 0.30 0.00 98 1012.8
20260510074604 51 300 0.0 6.0 0.00 0.30 0.00 98 1012.7
20260510074058 51 304 2.0 9.0 0.00 0.30 0.00 98 1012.8
20260510073557 51 42 4.0 9.0 0.00 0.30 0.00 98 1012.5
20260510073100 51 323 0.0 3.0 0.00 0.30 0.00 98 1012.6
20260510072558 51 0 0.0 2.0 0.00 0.30 0.00 98 1012.1
20260510072058 51 0 0.0 2.0 0.00 0.30 0.00 98 1012.0
20260510071559 51 323 1.0 2.0 0.00 0.30 0.00 98 1012.0
20260510071059 51 323 0.0 2.0 0.00 0.30 0.00 98 1011.9
20260510070557 51 0 0.0 2.0 0.00 0.30 0.00 99 1012.1
20260510070113 51 0 0.0 2.0 0.00 0.30 0.00 99 1012.0
20260510065602 51 0 0.0 0.0 0.00 0.30 0.00 98 1012.0
20260510065057 51 0 0.0 2.0 0.00 0.30 0.00 98 1012.1
20260510064558 51 0 0.0 2.0 0.00 0.30 0.00 98 1012.1
20260510064058 51 0 0.0 2.0 0.00 0.30 0.00 98 1012.1
20260510063558 51 0 0.0 2.0 0.00 0.30 0.00 98 1012.2
20260510063101 51 0 0.0 2.0 0.00 0.30 0.00 98 1012.3
20260510062557 51 323 1.0 3.0 0.00 0.30 0.00 98 1012.4
20260510062057 51 323 1.0 4.0 0.00 0.30 0.00 98 1012.4
20260510061559 51 302 2.0 4.0 0.00 0.30 0.00 98 1012.4
20260510061058 51 303 1.0 3.0 0.00 0.30 0.00 98 1012.5
20260510060558 51 165 0.0 2.0 0.00 0.30 0.00 98 1012.4
20260510060059 51 165 0.0 2.0 0.00 0.30 0.00 98 1012.3
20260510055557 51 0 0.0 2.0 0.00 0.30 0.00 98 1012.2
20260510055101 50 165 0.0 2.0 0.00 0.30 0.00 98 1012.1
20260510054601 51 165 0.0 2.0 0.00 0.30 0.00 98 1012.1
20260510054058 51 165 1.0 2.0 0.00 0.30 0.00 98 1012.0
20260510053558 51 165 0.0 2.0 0.00 0.30 0.00 98 1012.0
20260510053100 51 165 1.0 2.0 0.00 0.30 0.00 98 1012.0
20260510052559 51 165 1.0 2.0 0.00 0.30 0.00 98 1012.1
20260510052059 51 165 0.0 3.0 0.00 0.30 0.00 98 1012.2
20260510051608 51 165 1.0 4.0 0.00 0.30 0.00 98 1012.1
20260510051058 51 165 2.0 4.0 0.00 0.30 0.00 98 1012.1
20260510050600 51 0 0.0 0.0 0.00 0.30 0.00 98 1012.2
20260510050111 51 0 0.0 0.0 0.00 0.30 0.00 98 1012.1
20260510045559 51 0 0.0 0.0 0.00 0.30 0.00 98 1012.2
20260510045059 51 0 0.0 0.0 0.00 0.30 0.00 98 1012.3
20260510044558 51 0 0.0 0.0 0.00 0.30 0.00 98 1012.3
20260510044100 51 0 0.0 0.0 0.00 0.30 0.00 98 1012.3
20260510043558 50 0 0.0 0.0 0.00 0.30 0.00 98 1012.3
20260510043059 50 0 0.0 0.0 0.00 0.30 0.00 98 1012.3
20260510042559 50 0 0.0 0.0 0.00 0.30 0.00 98 1012.3
20260510042058 51 0 0.0 0.0 0.00 0.30 0.00 98 1012.3
20260510041609 50 0 0.0 0.0 0.00 0.30 0.00 98 1012.3
20260510041058 50 0 0.0 0.0 0.00 0.30 0.00 97 1012.2
20260510040558 50 0 0.0 0.0 0.00 0.30 0.00 98 1012.2
20260510040107 50 0 0.0 0.0 0.00 0.30 0.00 98 1012.3
20260510035557 50 0 0.0 0.0 0.00 0.30 0.30 98 1012.2
20260510035100 50 0 0.0 0.0 0.00 0.30 0.30 98 1012.2
20260510034600 50 0 0.0 0.0 0.00 0.30 0.30 98 1012.2
20260510034058 50 0 0.0 0.0 0.00 0.30 0.30 98 1012.2
20260510033558 50 0 0.0 0.0 0.00 0.30 0.30 97 1012.2
20260510033104 50 0 0.0 0.0 0.00 0.30 0.30 97 1012.2
20260510032600 50 0 0.0 0.0 0.00 0.30 0.30 97 1012.1
20260510032058 50 0 0.0 0.0 0.00 0.30 0.30 97 1012.1
20260510031604 50 0 0.0 0.0 0.00 0.30 0.30 97 1012.1
20260510031058 49 0 0.0 0.0 0.00 0.30 0.30 97 1012.2
20260510030600 49 0 0.0 0.0 0.00 0.30 0.30 97 1012.0
20260510025558 49 0 0.0 0.0 0.00 0.30 0.30 97 1012.0
20260510025102 49 0 0.0 0.0 0.00 0.30 0.30 97 1012.0
20260510024558 49 0 0.0 0.0 0.00 0.30 0.30 97 1012.0
20260510024100 49 0 0.0 0.0 0.00 0.30 0.30 97 1012.0
20260510023558 49 0 0.0 0.0 0.00 0.30 0.30 97 1012.0
20260510023100 49 0 0.0 0.0 0.00 0.30 0.30 97 1011.9
20260510022559 49 0 0.0 0.0 0.00 0.30 0.30 97 1011.9
20260510022100 49 0 0.0 0.0 0.00 0.30 0.30 96 1011.8
20260510021646 49 0 0.0 0.0 0.00 0.30 0.30 96 1011.8
20260510021058 49 0 0.0 0.0 0.00 0.30 0.30 96 1011.8
20260510020558 49 0 0.0 0.0 0.00 0.30 0.30 96 1011.8
20260510015558 49 0 0.0 0.0 0.00 0.30 0.30 96 1011.8
20260510015058 50 0 0.0 0.0 0.00 0.30 0.30 95 1011.9
20260510014601 50 0 0.0 0.0 0.00 0.30 0.30 95 1011.8
20260510014058 51 0 0.0 0.0 0.00 0.30 0.30 96 1011.8
20260510013558 51 0 0.0 0.0 0.00 0.30 0.30 96 1011.9
20260510013114 51 0 0.0 0.0 0.00 0.30 0.30 96 1011.9
20260510012559 51 0 0.0 0.0 0.00 0.30 0.30 96 1011.8
20260510012059 51 0 0.0 0.0 0.00 0.30 0.30 96 1011.8
20260510011600 52 0 0.0 0.0 0.00 0.30 0.30 96 1011.8
20260510011100 52 0 0.0 0.0 0.00 0.30 0.30 95 1011.7
20260510010600 52 0 0.0 0.0 0.00 0.30 0.30 95 1011.7
20260510005559 52 0 0.0 0.0 0.00 0.30 0.30 95 1011.6
20260510005058 53 0 0.0 0.0 0.00 0.30 0.30 94 1011.6
20260510004601 53 0 0.0 0.0 0.00 0.30 0.30 94 1011.5
20260510004058 53 0 0.0 0.0 0.00 0.30 0.30 94 1011.4
20260510003556 54 0 0.0 0.0 0.00 0.30 0.30 94 1011.3
20260510003100 54 0 0.0 1.0 0.00 0.30 0.30 94 1011.3
20260510002559 54 0 0.0 1.0 0.00 0.30 0.30 94 1011.1
20260510002057 54 165 0.0 3.0 0.00 0.30 0.30 94 1011.1
20260510001609 55 0 0.0 5.0 0.00 0.30 0.30 94 1011.0
20260510001058 55 165 1.0 5.0 0.00 0.30 0.30 94 1011.0
20260510000559 55 165 2.0 5.0 0.00 0.30 0.30 94 1010.9
20260510000100 55 0 0.0 0.0 0.00 0.30 0.30 93 1010.8
20260509235557 55 0 0.0 0.0 0.00 0.30 0.30 93 1010.9
20260509235057 56 0 0.0 0.0 0.00 0.30 0.30 92 1011.0
20260509234559 56 0 0.0 5.0 0.00 0.30 0.30 92 1011.0
20260509234057 56 0 0.0 5.0 0.00 0.30 0.30 91 1011.0
20260509233557 57 146 4.0 8.0 0.00 0.30 0.30 91 1010.9
20260509233102 57 156 4.0 10.0 0.00 0.30 0.30 91 1010.9
20260509232559 57 150 7.0 10.0 0.00 0.30 0.30 91 1011.0
20260509232059 57 165 3.0 5.0 0.00 0.30 0.30 92 1010.8
20260509231604 57 127 0.0 2.0 0.00 0.30 0.30 92 1010.8
20260509231100 58 0 1.0 2.0 0.00 0.30 0.30 91 1010.8
20260509230600 58 127 1.0 2.0 0.00 0.30 0.30 91 1010.8
20260509230100 58 127 0.0 3.0 0.00 0.30 0.30 91 1010.7
20260509225600 58 127 1.0 3.0 0.00 0.30 0.30 91 1010.7
20260509225059 58 129 2.0 3.0 0.00 0.30 0.30 90 1010.7
20260509224559 58 129 1.0 2.0 0.00 0.30 0.30 90 1010.8
20260509224059 58 129 1.0 2.0 0.00 0.30 0.30 90 1010.8
20260509223600 58 129 0.0 2.0 0.00 0.30 0.30 90 1010.9
20260509223102 58 129 0.0 2.0 0.00 0.30 0.30 90 1010.9
20260509222559 58 129 0.0 2.0 0.00 0.30 0.30 89 1010.8
20260509222059 58 129 0.0 2.0 0.00 0.30 0.30 89 1010.9
20260509221559 58 0 0.0 2.0 0.00 0.30 0.30 89 1010.9
20260509221059 58 129 0.0 2.0 0.00 0.30 0.30 90 1010.9
20260509220600 57 0 1.0 2.0 0.00 0.30 0.30 90 1010.9
20260509220100 57 128 1.0 2.0 0.00 0.30 0.30 90 1010.8
20260509215559 57 128 1.0 2.0 0.00 0.30 0.30 91 1010.8
20260509215100 57 129 0.0 3.0 0.00 0.30 0.30 91 1010.7
20260509214558 57 128 1.0 4.0 0.00 0.30 0.30 91 1010.7
20260509214059 57 128 2.0 5.0 0.00 0.30 0.30 91 1010.8
20260509213559 57 113 3.0 5.0 0.00 0.30 0.30 92 1010.8
20260509213115 57 150 3.0 4.0 0.00 0.30 0.30 92 1010.9
20260509212559 57 0 0.0 0.0 0.00 0.30 0.30 92 1011.0
20260509212100 57 0 0.0 0.0 0.00 0.30 0.30 93 1011.0
20260509211603 56 0 0.0 2.0 0.00 0.30 0.30 93 1011.1
20260509211059 56 0 0.0 2.0 0.01 0.30 0.30 92 1011.1
20260509210600 56 0 1.0 2.0 0.02 0.30 0.30 93 1011.2
20260509210059 56 22 0.0 2.0 0.03 0.30 0.30 93 1011.4
20260509205559 55 0 0.0 2.0 0.04 0.30 0.30 93 1011.3
20260509205059 55 17 0.0 2.0 0.04 0.30 0.30 94 1011.2
20260509204600 55 17 0.0 2.0 0.04 0.30 0.30 94 1011.1
20260509204100 55 134 1.0 2.0 0.04 0.30 0.30 94 1011.1
20260509203559 55 0 0.0 2.0 0.04 0.30 0.30 94 1011.2
20260509203101 55 134 1.0 2.0 0.04 0.30 0.30 94 1011.2
20260509202601 54 0 0.0 2.0 0.04 0.30 0.30 94 1011.2
20260509202059 54 134 0.0 2.0 0.05 0.30 0.30 94 1011.1
20260509201605 54 134 1.0 2.0 0.06 0.30 0.30 94 1011.3
20260509201059 54 134 1.0 2.0 0.05 0.29 0.29 94 1011.4
20260509200559 54 134 0.0 2.0 0.06 0.28 0.28 94 1011.5
20260509200104 54 0 0.0 4.0 0.05 0.26 0.26 94 1011.5
20260509195600 55 134 1.0 5.0 0.07 0.26 0.26 94 1011.4
20260509195058 55 134 3.0 5.0 0.08 0.26 0.26 94 1011.4
20260509194602 55 129 2.0 3.0 0.09 0.26 0.26 94 1011.5
20260509194100 54 205 1.0 3.0 0.09 0.26 0.26 94 1011.7
20260509193600 55 205 2.0 3.0 0.10 0.26 0.26 93 1011.9
20260509193059 55 315 1.0 2.0 0.11 0.26 0.26 93 1012.0
20260509192603 55 0 0.0 2.0 0.12 0.26 0.26 94 1012.0
20260509192059 55 0 0.0 4.0 0.12 0.25 0.25 93 1012.0
20260509191608 55 317 2.0 4.0 0.12 0.24 0.24 92 1012.3
20260509191059 55 0 0.0 2.0 0.13 0.24 0.24 92 1012.4
20260509190602 55 326 0.0 3.0 0.12 0.22 0.22 92 1012.5
20260509190057 55 326 1.0 4.0 0.12 0.21 0.21 92 1012.5
20260509185559 55 352 0.0 5.0 0.11 0.19 0.19 92 1012.4
20260509185100 55 230 1.0 5.0 0.11 0.18 0.18 92 1012.4
20260509184610 56 27 1.0 3.0 0.11 0.17 0.17 92 1012.6
20260509184100 56 319 0.0 2.0 0.11 0.17 0.17 93 1012.6
20260509183600 56 0 0.0 0.0 0.11 0.16 0.16 93 1012.7
20260509183101 56 0 0.0 0.0 0.10 0.15 0.15 92 1012.6
20260509182600 56 0 0.0 0.0 0.10 0.14 0.14 92 1012.7
20260509182100 56 0 0.0 0.0 0.09 0.13 0.13 92 1012.8
20260509181606 56 0 0.0 0.0 0.09 0.12 0.12 92 1012.7
20260509181058 56 0 0.0 2.0 0.09 0.11 0.11 92 1012.7
20260509180600 56 0 0.0 2.0 0.09 0.10 0.10 91 1012.6
20260509180115 56 319 0.0 2.0 0.09 0.09 0.09 91 1012.5
20260509175559 57 319 1.0 3.0 0.08 0.08 0.08 91 1012.6
20260509175059 57 320 1.0 3.0 0.07 0.07 0.07 91 1012.5
20260509174557 57 179 0.0 3.0 0.06 0.06 0.06 90 1012.5
20260509174100 57 0 0.0 0.0 0.06 0.06 0.06 91 1012.5
20260509173600 57 0 0.0 0.0 0.05 0.05 0.05 90 1012.4
20260509173107 57 0 0.0 0.0 0.05 0.05 0.05 89 1012.3
20260509172600 57 0 0.0 2.0 0.04 0.04 0.04 89 1012.3
20260509172100 57 0 0.0 2.0 0.04 0.04 0.04 88 1012.4
20260509171558 58 179 0.0 3.0 0.03 0.03 0.03 87 1012.6
20260509171100 58 179 0.0 5.0 0.02 0.02 0.02 86 1012.6
20260509170600 58 179 2.0 5.0 0.01 0.01 0.01 85 1012.6
20260509170105 58 186 2.0 5.0 0.00 0.00 0.00 85 1012.7
20260509165559 58 202 1.0 8.0 0.00 0.00 0.00 84 1012.7
20260509165059 59 202 1.0 8.0 0.00 0.00 0.00 83 1012.6
20260509164557 59 220 3.0 8.0 0.00 0.00 0.00 82 1012.6
20260509164103 59 244 2.0 4.0 0.00 0.00 0.00 81 1012.5
20260509163559 59 0 0.0 6.0 0.00 0.00 0.00 81 1012.5
20260509163104 59 0 0.0 8.0 0.00 0.00 0.00 81 1012.5
20260509162601 59 284 1.0 8.0 0.00 0.00 0.00 80 1012.7
20260509162059 59 294 3.0 8.0 0.00 0.00 0.00 80 1012.7
20260509161605 59 258 1.0 6.0 0.00 0.00 0.00 80 1012.7
20260509161100 59 230 1.0 6.0 0.00 0.00 0.00 80 1012.6
20260509160600 59 257 2.0 6.0 0.00 0.00 0.00 80 1012.6
20260509155601 59 288 0.0 7.0 0.00 0.00 0.00 81 1012.8
20260509155059 59 291 2.0 7.0 0.00 0.00 0.00 81 1012.9
20260509154559 59 0 2.0 5.0 0.00 0.00 0.00 81 1012.8
20260509154100 59 248 1.0 5.0 0.00 0.00 0.00 82 1012.7
20260509153623 59 281 1.0 5.0 0.00 0.00 0.00 82 1012.8
20260509153103 58 261 1.0 5.0 0.00 0.00 0.00 83 1012.9
20260509152559 58 256 0.0 3.0 0.00 0.00 0.00 84 1012.9
20260509152100 58 0 0.0 0.0 0.00 0.00 0.00 85 1012.9
20260509151601 58 0 0.0 2.0 0.00 0.00 0.00 86 1012.7
20260509151100 58 0 0.0 3.0 0.00 0.00 0.00 87 1012.8
20260509150559 57 189 1.0 3.0 0.00 0.00 0.00 85 1012.8
20260509150058 58 192 1.0 3.0 0.00 0.00 0.00 86 1012.9
20260509145600 58 202 1.0 3.0 0.00 0.00 0.00 85 1012.8
20260509145100 58 202 1.0 2.0 0.00 0.00 0.00 85 1012.8
20260509144600 57 202 0.0 2.0 0.00 0.00 0.00 85 1012.8
20260509144101 57 0 0.0 2.0 0.00 0.00 0.00 85 1012.7
20260509143600 57 0 0.0 2.0 0.00 0.00 0.00 84 1012.8
20260509143059 56 0 0.0 2.0 0.00 0.00 0.00 84 1012.8
20260509142559 56 202 0.0 2.0 0.00 0.00 0.00 84 1012.8
20260509142059 56 202 0.0 2.0 0.00 0.00 0.00 84 1012.7
20260509141557 56 0 0.0 2.0 0.00 0.00 0.00 83 1012.7
20260509141101 56 0 1.0 2.0 0.00 0.00 0.00 83 1012.8
20260509140559 56 202 1.0 2.0 0.00 0.00 0.00 83 1012.7
20260509140108 56 202 1.0 2.0 0.00 0.00 0.00 83 1012.7
20260509135600 55 202 1.0 2.0 0.00 0.00 0.00 83 1012.7
20260509135100 55 202 0.0 2.0 0.00 0.00 0.00 84 1012.5
20260509134600 55 202 1.0 2.0 0.00 0.00 0.00 83 1012.4
20260509134059 55 202 1.0 2.0 0.00 0.00 0.00 83 1012.5
20260509133600 55 202 1.0 2.0 0.00 0.00 0.00 84 1012.5
20260509133058 55 202 1.0 2.0 0.00 0.00 0.00 83 1012.5
20260509132600 55 202 1.0 2.0 0.00 0.00 0.00 84 1012.5
20260509132100 55 202 0.0 0.0 0.00 0.00 0.00 85 1012.6
20260509131559 54 0 0.0 0.0 0.00 0.00 0.00 85 1012.7
20260509131059 54 0 0.0 0.0 0.00 0.00 0.00 85 1012.7
20260509130603 54 0 0.0 1.0 0.00 0.00 0.00 85 1012.7
20260509130059 54 0 0.0 2.0 0.00 0.00 0.00 85 1012.8
20260509125559 53 202 1.0 2.0 0.00 0.00 0.00 85 1012.8
20260509125059 53 202 0.0 3.0 0.00 0.00 0.00 86 1012.8
20260509124559 53 281 1.0 3.0 0.00 0.00 0.00 86 1012.8
20260509124059 53 281 1.0 3.0 0.00 0.00 0.00 87 1012.8
20260509123559 53 281 1.0 3.0 0.00 0.00 0.00 87 1012.8
20260509123100 53 281 1.0 3.0 0.00 0.00 0.00 87 1012.9
20260509122602 52 281 1.0 3.0 0.00 0.00 0.00 88 1012.8
20260509122100 52 190 2.0 3.0 0.00 0.00 0.00 88 1012.8
20260509121601 52 190 1.0 3.0 0.00 0.00 0.00 88 1012.8
20260509121100 52 190 2.0 3.0 0.00 0.00 0.00 89 1012.8
20260509120600 51 190 1.0 2.0 0.00 0.00 0.00 89 1012.8
20260509120058 51 190 1.0 3.0 0.00 0.00 0.00 89 1012.8
20260509115559 51 190 1.0 3.0 0.00 0.00 0.00 89 1012.8
20260509115059 51 168 0.0 3.0 0.00 0.00 0.00 89 1012.8
20260509114559 51 0 0.0 0.0 0.00 0.00 0.00 90 1012.7
20260509114059 51 0 0.0 0.0 0.00 0.00 0.00 89 1012.8
20260509113559 51 0 0.0 0.0 0.00 0.00 0.00 89 1012.7
20260509113058 51 0 0.0 1.0 0.00 0.00 0.00 90 1012.7
20260509112559 51 0 0.0 1.0 0.00 0.00 0.00 90 1012.7
20260509112100 50 0 0.0 0.0 0.00 0.00 0.00 91 1012.8
20260509111559 50 0 0.0 0.0 0.00 0.00 0.00 91 1012.8
20260509111100 50 0 0.0 0.0 0.00 0.00 0.00 91 1012.7
20260509110600 50 0 0.0 2.0 0.00 0.00 0.00 91 1012.6
20260509110100 50 0 1.0 3.0 0.00 0.00 0.00 91 1012.6
20260509105600 50 0 1.0 3.0 0.00 0.00 0.00 90 1012.7
20260509105100 50 217 1.0 3.0 0.00 0.00 0.00 91 1012.7
20260509104605 50 217 2.0 3.0 0.00 0.00 0.00 92 1012.6
20260509104059 49 180 0.0 2.0 0.00 0.00 0.00 92 1012.3
20260509103559 49 0 0.0 1.0 0.00 0.00 0.00 92 1012.4
20260509103106 49 0 0.0 0.0 0.00 0.00 0.00 92 1012.4
20260509102559 49 0 0.0 2.0 0.00 0.00 0.00 92 1012.4
20260509102059 49 0 0.0 2.0 0.00 0.00 0.00 92 1012.5
20260509101620 49 191 0.0 2.0 0.00 0.00 0.00 92 1012.5
20260509101059 49 0 0.0 2.0 0.00 0.00 0.00 92 1012.6
20260509100559 49 0 0.0 0.0 0.00 0.00 0.00 92 1012.6
20260509095602 49 0 0.0 0.0 0.00 0.00 0.00 91 1012.6
20260509095100 49 0 0.0 0.0 0.00 0.00 0.00 91 1012.6
20260509094604 50 0 0.0 0.0 0.00 0.00 0.00 92 1012.6
20260509094100 49 0 0.0 0.0 0.00 0.00 0.00 91 1012.5
20260509093600 49 0 0.0 0.0 0.00 0.00 0.00 91 1012.6